Location: Unspecified
(0.0000°N, 0.0000°E)
Time: 16:08:03
(UTC+00:00)

STARLINK-35285 - Visible Passes

Search period start: 14 January 2026 00:00
Search period end: 24 January 2026 00:00
Orbit: 548 x 551 km, 97.6° (Epoch: 14 January)

Date Brightness Start Highest point End Pass type
(mag) Time Alt. Az. Time Alt. Az. Time Alt. Az.
14 Jan 5.7 20:38:40 11° SSW 20:38:40 11° SSW 20:38:51 10° SSW visible
15 Jan 5.6 20:34:10 12° SSW 20:34:10 12° SSW 20:34:26 10° SSW visible
16 Jan 5.5 20:29:38 12° SSW 20:29:38 12° SSW 20:30:00 10° SSW visible
17 Jan 5.4 20:25:07 13° S 20:25:07 13° S 20:25:33 10° S visible
18 Jan 5.3 20:20:36 13° S 20:20:36 13° S 20:21:04 10° S visible
19 Jan 5.2 20:16:04 13° S 20:16:04 13° S 20:16:33 10° S visible
20 Jan 5.2 20:11:31 13° S 20:11:31 13° S 20:11:59 10° S visible
21 Jan 5.2 20:06:59 13° S 20:06:59 13° S 20:07:25 10° S visible
22 Jan 5.2 20:02:26 12° SSE 20:02:26 12° SSE 20:02:48 10° S visible
23 Jan 5.2 19:57:52 12° SSE 19:57:52 12° SSE 19:58:09 10° SSE visible
